Regional Weather Roundup
Issued by NWS

Home | Current Version | Previous Version | Text Only | Print | Product List | Glossary On
Versions: 1 2 3 4 5 6 7 8 9 10 11 12 13 14 15 16 17 18 19 20 21 22 23 24 25 26 27 28 29 30 31 32 33 34 35 36 37 38 39 40 41 42 43 44 45 46 47 48 49 50
000
ASUS42 KFFC 291003
RWRGA
WEATHER ROUNDUP FOR GEORGIA
NATIONAL WEATHER SERVICE PEACHTREE CITY GA
500 AM EST THU JAN 29 2015

NOTE: "FAIR" INDICATES FEW OR NO CLOUDS BELOW 12,000 FEET WITH NO
SIGNIFICANT WEATHER AND/OR OBSTRUCTIONS TO VISIBILITY.

* = USE WITH CAUTION. THE STATIONS MARKED WITH AN ASTERISK MAY NOT
REPORT WEATHER SUCH AS PRECIPITATION, FOG, OR THUNDER AND ARE NOT
QUALITY CONTROLLED BY NWS.

THE REMARK "TC" DENOTES TEMPERATURE READING IN DEGREES CELSIUS.

GAZ001>058-291100-
NORTH GEORGIA

CITY           SKY/WX    TMP DP  RH WIND       PRES   REMARKS
ATLANTA        MOCLDY    36  28  73 CALM      30.27F
ATHENS         MOCLDY    30  25  81 CALM      30.31R
CHAMBLEE       CLEAR     31  27  85 CALM      30.27F
PEACHTREE CITY PTCLDY    28  26  92 CALM      30.29F
ROME           PTCLDY    30  24  78 CALM      30.24F
WEST ATLANTA   PTCLDY    30  27  88 CALM      30.28F
GAINESVILLE    PTCLDY    33  24  69 E3        30.28F
CARTERSVILLE   PTCLDY    36  27  69 VRB3      30.26F


CITY           SKY/WX    TMP DP  RH WIND       PRES   REMARKS
DALTON*        PTCLDY    32  28  86 CALM      30.24S
MARIETTA       PTCLDY    32  28  86 CALM      30.26F
$$

GAZ059>098-102>109-291100-
CENTRAL GEORGIA

CITY           SKY/WX    TMP DP  RH WIND       PRES   REMARKS
AUGUSTA-BUSH   PTCLDY    25  22  88 CALM      30.35R
AUGUSTA-DANIEL PTCLDY    35  23  61 CALM      30.33R
COLUMBUS       CLEAR     34  30  85 CALM      30.31S
MACON          CLEAR     30  29  96 CALM      30.33S
ROBINS AFB     CLEAR     31  30  96 SE2       30.31S


CITY           SKY/WX    TMP DP  RH WIND       PRES   REMARKS
LAGRANGE*      CLEAR     32  31  98 CALM      30.29F
SYLVANIA*      CLEAR     29  29 100 CALM      30.34R
MILLEDGEVILLE* CLEAR     32  32 100 CALM      30.34S
$$

GAZ099>101-110>166-291100-
SOUTH GEORGIA

CITY           SKY/WX    TMP DP  RH WIND       PRES   REMARKS
SAVANNAH       CLEAR     30  26  85 CALM      30.34R
VALDOSTA       CLEAR     33  31  92 CALM      30.32R
ALMA           CLEAR     29  28  96 CALM      30.33R
ST SIMONS      CLEAR     35  32  88 CALM      30.31F
FT STEWART     CLEAR     28  26  89 CALM      30.32R
ALBANY         CLEAR     32  29  88 CALM      30.35R
HUNTER AFB     CLEAR     31  28  88 NW2       30.31S
MOODY AFB      CLEAR     35  31  83 VRB1      30.31R
BRUNSWICK      CLEAR     32  32 100 CALM      30.32S


CITY           SKY/WX    TMP DP  RH WIND       PRES   REMARKS
BAINBRIDGE*    CLEAR     37  36  93 E3        30.32R
MOULTRIE*      CLEAR     36  34  93 CALM      30.33R
VIDALIA*       CLEAR     32  30  93 CALM      30.33R
WAYCROSS*      CLEAR     33  32  96 N5        30.33R WCI  29
DOUGLAS*       FAIR      34  32  93 CALM      30.35R
$$


USA.gov is the U.S. government's official web portal to all federal, state and local government web resources and services.